[[{"header":{"parameterUnit":"m.s-1","parameterCategory":1,"la1":30.2991,"la2":30.254,"lo1":-89.0895,"lo2":-89.0444,"dy":0.0017,"dx":0.0017,"nx":28,"ny":28,"refTime":"2026-01-04T09:00:00:Z","depth":0,"parameterNumber":2,"parameterNumberName":"U-component_of_WINDS"},"data":[0,0,0,0,0,0,0,0,0,0,0,0,0,0,0,0,0,0,0,0,0,0,0,0,0,0,0,0,0,0,0,0,0,0,0,0,0,0,0,0,0,0,0,0,0,0,0,0,0,0,0,0,0,0,0,0,0,0,-2.5433,-2.5434,0,-2.5501,-2.5502,-2.5503,-2.5434,-2.5432,-2.5429,-2.5426,-2.5499,-2.5504,-2.5508,0,0,0,0,0,0,0,0,0,0,0,0,0,-2.5247,-2.5251,-2.5433,-2.5434,-2.5435,-2.5501,-2.5502,-2.5503,-2.5435,-2.5432,-2.5428,-2.5425,-2.5498,-2.5503,-2.5509,0,0,0,0,0,0,0,0,0,0,0,0,0,-2.5323,-2.5252,-2.5433,-2.5409,-2.5407,-2.5501,-2.5502,-2.5503,-2.5436,-2.5431,-2.5427,-2.5424,-2.5496,-2.5503,-2.5509,-2.5631,0,0,-2.553,-2.5533,0,0,0,0,0,0,0,0,-2.5319,-2.533,-2.5412,-2.5411,-2.5409,-2.5455,-2.5463,-2.5546,-2.5437,-2.5425,-2.5426,-2.5422,-2.5488,-2.5495,-2.5517,-2.5635,-2.5638,-2.553,-2.5534,-2.5537,-2.5539,0,0,0,0,0,0,0,-2.5314,-2.5327,-2.546,-2.5413,-2.5411,-2.5395,-2.5402,-2.5479,-2.5479,-2.5426,-2.5421,-2.543,-2.5487,-2.5511,-2.5518,-2.5639,-2.553,-2.5536,-2.554,-2.5543,-2.5862,-2.5867,0,0,0,0,0,0,-2.5311,-2.5323,-2.5458,-2.5462,-2.5353,-2.5402,-2.5409,-2.5445,-2.5477,-2.5479,-2.5433,-2.5426,-2.5501,-2.5511,-2.5521,-2.5668,-2.5537,-2.5543,-2.5547,-2.5858,-2.5863,-2.5868,0,0,0,0,0,0,-2.5307,-2.5323,-2.5455,-2.5391,-2.5407,-2.541,-2.545,-2.5448,-2.5472,-2.5483,-2.5483,-2.5457,-2.5499,-2.5511,-2.5605,-2.5669,-2.5546,-2.5553,-2.5853,-2.586,-2.5866,-2.5962,0,0,0,0,0,0,-2.5302,-2.5322,-2.5368,-2.5393,-2.541,-2.5538,-2.5454,-2.5452,-2.5483,-2.5475,-2.5506,-2.5507,-2.5496,-2.5595,-2.5611,-2.5676,-2.5558,-2.5847,-2.5856,-2.5864,-2.5953,-2.5971,-2.5986,0,0,0,0,0,-2.5295,-2.5393,-2.5371,-2.5388,-2.5468,-2.5542,-2.5552,-2.5536,-2.5489,-2.5536,-2.5543,-2.5506,-2.5659,-2.5605,-2.5623,-2.5691,-2.5843,-2.5853,-2.5863,-2.5945,-2.5967,-2.5986,0,0,0,0,0,0,-2.5377,-2.5396,-2.5372,-2.5479,-2.5509,-2.553,-2.5588,-2.556,-2.5605,-2.5595,-2.5575,-2.5583,-2.5682,-2.5695,-2.5635,-2.5811,-2.5743,-2.5757,-2.58,-2.5821,-2.5837,-2.5833,-2.5563,0,0,0,0,0,-2.5407,-2.5465,-2.5478,-2.5572,-2.5588,-2.5586,-2.5617,-2.5603,-2.5633,-2.5646,-2.566,-2.5692,-2.5747,-2.5784,-2.5835,-2.5953,-2.596,-2.6009,-2.6025,-2.6039,-2.6053,-2.6118,-2.614,-2.5901,-2.5901,-2.5901,0,0,-2.5471,-2.5488,-2.5526,-2.5589,-2.561,-2.5672,-2.5597,-2.5665,-2.5711,-2.5657,-2.5746,-2.5757,-2.5792,-2.5899,-2.5946,-2.5913,-2.612,-2.6052,-2.6063,-2.6069,-2.6131,-2.6153,-2.6173,-2.5908,-2.5907,-2.5906,0,0,-2.5619,-2.5637,-2.5718,-2.5741,-2.5774,-2.5772,-2.5791,-2.5816,-2.5821,-2.591,-2.5872,-2.5926,-2.6021,-2.6047,-2.6073,-2.6231,-2.6201,-2.6248,-2.6337,-2.6401,-2.642,-2.6437,-2.6495,-2.6516,-2.6261,-2.6261,-2.6262,0,-2.5695,-2.5785,-2.5764,-2.5835,-2.5864,-2.5817,-2.59,-2.5923,-2.5972,-2.5994,-2.5955,-2.6074,-2.6093,-2.6207,-2.6246,-2.6267,-2.629,-2.6246,-2.6419,-2.6435,-2.645,-2.6506,-2.6528,-2.6267,-2.6267,-2.6266,-2.6265,0,-2.5877,-2.594,-2.6002,-2.6049,-2.6086,-2.6162,-2.6154,-2.6194,-2.6176,-2.6178,-2.627,-2.6292,-2.6347,-2.6372,-2.6356,-2.6484,-2.6462,-2.6421,-2.6353,-2.6479,-2.6532,-2.6553,-2.6276,-2.6274,-2.6272,-2.627,0,0,-2.608,-2.6115,-2.6138,-2.616,-2.6193,-2.6242,-2.6316,-2.637,-2.6405,-2.644,-2.6504,-2.6585,-2.6547,-2.6577,-2.6562,-2.6618,-2.6745,-2.657,-2.6571,-2.6604,-2.689,-2.6923,-2.6948,-2.6723,-2.6727,-2.673,-2.6888,0,-2.6231,-2.6361,-2.6344,-2.6469,-2.6528,-2.6483,-2.6549,-2.6577,-2.658,-2.6632,-2.6636,-2.6695,-2.664,-2.6657,-2.671,-2.6718,-2.6802,-2.6706,-2.6785,-2.6788,-2.678,-2.6975,-2.701,-2.7158,-2.6908,-2.6912,-2.6914,0,-2.6425,-2.6467,-2.6597,-2.6622,-2.6646,-2.6705,-2.6753,-2.6802,-2.6833,-2.6832,-2.6865,-2.6841,-2.6917,-2.6845,-2.6952,-2.6887,-2.6917,-2.6926,-2.6931,-2.694,-2.6861,-2.6992,-2.7204,-2.7228,-2.6946,-2.6943,-2.6941,0,-2.6564,-2.6652,-2.6742,-2.6761,-2.6792,-2.6835,-2.6849,-2.6876,-2.691,-2.6952,-2.6974,-2.7024,-2.7053,-2.7093,-2.7084,-2.7032,-2.7193,-2.712,-2.7197,-2.7197,-2.7235,-2.7233,-2.7458,-2.725,-2.725,-2.7249,-2.7249,0,-2.6736,-2.6818,-2.6805,-2.6861,-2.6952,-2.6932,-2.7023,-2.7032,-2.7056,-2.7114,-2.7078,-2.7133,-2.7116,-2.717,-2.7163,-2.7254,-2.7266,-2.7269,-2.7267,-2.7274,-2.7274,-2.7296,-2.7287,-2.7255,-2.7254,-2.7253,-2.7252,0,-2.6908,-2.6901,-2.6997,-2.7017,-2.7024,-2.7091,-2.7109,-2.7162,-2.7162,-2.7236,-2.7252,-2.7253,-2.7316,-2.7309,-2.7379,-2.7375,-2.7488,-2.7472,-2.7478,-2.7475,-2.7553,-2.7547,-2.7802,-2.7836,-2.7604,-2.7606,-2.7608,0,-2.7019,-2.7082,-2.7108,-2.7144,-2.7162,-2.7219,-2.7253,-2.7236,-2.7273,-2.7313,-2.7362,-2.742,-2.7467,-2.7569,-2.7577,-2.7631,-2.7618,-2.7703,-2.7626,-2.7631,-2.7622,-2.762,-2.7627,-2.772,-2.7722,-2.7724,-2.7726,0,-2.7219,-2.7213,-2.7263,-2.7312,-2.7353,-2.7391,-2.7426,-2.7457,-2.7443,-2.7487,-2.755,-2.7586,-2.7657,-2.7717,-2.7768,-2.7784,-2.7754,-2.775,-2.7771,-2.7781,-2.7783,-2.7785,-2.7522,-2.7745,-2.7743,-2.7742,-2.7741,-2.774,-2.7366,-2.742,-2.7448,-2.7505,-2.7528,-2.7561,-2.7613,-2.7619,-2.7671,-2.7727,-2.7714,-2.7786,-2.7815,-2.7881,-2.7902,-2.7959,-2.7928,-2.7958,-2.7966,-2.7974,-2.7985,-2.7771,-2.7967,-2.7967,-2.7966,-2.7966,-2.7965,0,-2.7566,-2.7582,-2.7634,-2.7683,-2.7729,-2.7694,-2.773,-2.7771,-2.7834,-2.7864,-2.791,-2.7984,-2.8041,-2.8053,-2.8109,-2.8152,-2.814,-2.8168,-2.8166,-2.8171,-2.8008,-2.7985,-2.8177,-2.8177,-2.8177,-2.8177,-2.8177,-2.8176,-2.7676,-2.7766,-2.7763,-2.7865,-2.788,-2.7949,-2.7974,-2.8004,-2.8028,-2.8111,-2.8159,-2.8166,-2.8189,-2.8246,-2.8298,-2.83,-2.8323,-2.8357,-2.8354,-2.8203,-2.8182,-2.8162,-2.8141,-2.8362,-2.8362,-2.8513,-2.8514,-2.8515]},{"header":{"parameterUnit":"m.s-1","parameterCategory":1,"la1":30.2991,"la2":30.254,"lo1":-89.0895,"lo2":-89.0444,"dy":0.0017,"dx":0.0017,"nx":28,"ny":28,"refTime":"2026-01-04T09:00:00:Z","depth":0,"parameterNumber":3,"parameterNumberName":"V-component_of_WINDS"},"data":[0,0,0,0,0,0,0,0,0,0,0,0,0,0,0,0,0,0,0,0,0,0,0,0,0,0,0,0,0,0,0,0,0,0,0,0,0,0,0,0,0,0,0,0,0,0,0,0,0,0,0,0,0,0,0,0,0,0,-4.6638,-4.6639,0,-4.677,-4.6772,-4.6773,-4.6756,-4.6754,-4.6752,-4.675,-4.6884,-4.6889,-4.6894,0,0,0,0,0,0,0,0,0,0,0,0,0,-4.6368,-4.6373,-4.6637,-4.6639,-4.6641,-4.677,-4.6772,-4.6773,-4.6756,-4.6754,-4.6751,-4.6749,-4.6882,-4.6888,-4.6895,0,0,0,0,0,0,0,0,0,0,0,0,0,-4.6491,-4.6374,-4.6637,-4.6648,-4.665,-4.6769,-4.6772,-4.6774,-4.6757,-4.6754,-4.6751,-4.6748,-4.6879,-4.6888,-4.6896,-4.7012,0,0,-4.6921,-4.6925,0,0,0,0,0,0,0,0,-4.6484,-4.6501,-4.6645,-4.6647,-4.665,-4.6743,-4.6726,-4.6854,-4.6758,-4.6716,-4.675,-4.6746,-4.6839,-4.6851,-4.6883,-4.7019,-4.7024,-4.6922,-4.6927,-4.6931,-4.6933,0,0,0,0,0,0,0,-4.6476,-4.6495,-4.669,-4.6647,-4.665,-4.6645,-4.6659,-4.675,-4.6794,-4.672,-4.6719,-4.6735,-4.684,-4.6875,-4.6886,-4.7026,-4.6922,-4.6929,-4.6935,-4.6938,-4.7265,-4.7269,0,0,0,0,0,0,-4.6464,-4.6488,-4.6686,-4.6694,-4.6557,-4.6653,-4.6669,-4.6717,-4.6793,-4.6802,-4.6738,-4.6734,-4.6862,-4.6876,-4.689,-4.7033,-4.6931,-4.6939,-4.6943,-4.7261,-4.7266,-4.727,0,0,0,0,0,0,-4.6459,-4.6482,-4.668,-4.6591,-4.6616,-4.6661,-4.6715,-4.6721,-4.6755,-4.6807,-4.6814,-4.6765,-4.686,-4.6879,-4.6982,-4.7037,-4.6942,-4.695,-4.7257,-4.7263,-4.7268,-4.7318,0,0,0,0,0,0,-4.6451,-4.648,-4.6525,-4.6592,-4.6621,-4.6771,-4.6719,-4.6726,-4.677,-4.6766,-4.6834,-4.6843,-4.6859,-4.697,-4.6991,-4.7047,-4.6956,-4.7252,-4.726,-4.7266,-4.7311,-4.7324,-4.7335,0,0,0,0,0,-4.6442,-4.6534,-4.6528,-4.6552,-4.6678,-4.6774,-4.679,-4.6808,-4.6775,-4.682,-4.6853,-4.684,-4.7027,-4.6981,-4.7004,-4.7063,-4.7249,-4.7258,-4.7266,-4.7306,-4.7322,-4.7335,0,0,0,0,0,0,-4.6471,-4.6542,-4.6537,-4.6653,-4.6708,-4.6771,-4.6829,-4.6824,-4.6888,-4.6882,-4.69,-4.6916,-4.7021,-4.7052,-4.6999,-4.718,-4.7134,-4.7147,-4.7156,-4.7172,-4.7183,-4.7174,-4.6963,0,0,0,0,0,-4.6492,-4.6564,-4.6622,-4.6719,-4.6747,-4.6783,-4.6826,-4.6835,-4.6892,-4.6914,-4.6955,-4.701,-4.7082,-4.7128,-4.7196,-4.7315,-4.733,-4.7367,-4.7379,-4.7389,-4.74,-4.7466,-4.7484,-4.7297,-4.7297,-4.7297,0,0,-4.6534,-4.6582,-4.6626,-4.6726,-4.677,-4.6844,-4.6803,-4.6883,-4.6939,-4.6926,-4.7028,-4.7059,-4.7122,-4.7234,-4.7285,-4.7263,-4.7455,-4.7399,-4.7407,-4.7413,-4.7477,-4.7494,-4.751,-4.7303,-4.7302,-4.7301,0,0,-4.6649,-4.6693,-4.6779,-4.6823,-4.689,-4.6914,-4.6934,-4.6999,-4.702,-4.7121,-4.7114,-4.7179,-4.7302,-4.7347,-4.7386,-4.7519,-4.751,-4.7541,-4.7603,-4.7668,-4.7682,-4.7695,-4.7744,-4.7761,-4.7552,-4.7552,-4.7552,0,-4.6694,-4.6806,-4.6824,-4.6906,-4.695,-4.6943,-4.703,-4.7072,-4.7157,-4.7188,-4.7162,-4.7316,-4.7358,-4.7481,-4.7513,-4.7545,-4.7569,-4.7534,-4.7679,-4.7692,-4.7705,-4.7751,-4.7769,-4.7556,-4.7555,-4.7555,-4.7555,0,-4.6858,-4.6936,-4.6997,-4.7081,-4.7132,-4.7216,-4.7246,-4.7295,-4.73,-4.7326,-4.743,-4.748,-4.7558,-4.7588,-4.7593,-4.7712,-4.7697,-4.7675,-4.7628,-4.7726,-4.777,-4.7787,-4.7561,-4.7559,-4.7558,-4.7557,0,0,-4.6996,-4.7089,-4.7111,-4.7149,-4.7222,-4.7283,-4.7366,-4.7444,-4.7487,-4.7545,-4.7616,-4.772,-4.77,-4.7745,-4.7754,-4.781,-4.7914,-4.7782,-4.7783,-4.7805,-4.8049,-4.8066,-4.8086,-4.7908,-4.7911,-4.7914,-4.8044,0,-4.7119,-4.7269,-4.7287,-4.7419,-4.7492,-4.7486,-4.7559,-4.7612,-4.7638,-4.7703,-4.7732,-4.7806,-4.7774,-4.7801,-4.7857,-4.789,-4.7963,-4.788,-4.7974,-4.7977,-4.7959,-4.8109,-4.8127,-4.8248,-4.8061,-4.8064,-4.8066,0,-4.7284,-4.7348,-4.7488,-4.7552,-4.7583,-4.7648,-4.7722,-4.7784,-4.7843,-4.7859,-4.7909,-4.7911,-4.7997,-4.7947,-4.8066,-4.8009,-4.8048,-4.807,-4.8075,-4.8085,-4.8028,-4.8124,-4.8287,-4.8305,-4.8093,-4.8091,-4.8089,0,-4.7372,-4.7494,-4.7593,-4.7626,-4.7702,-4.7749,-4.7783,-4.7839,-4.7884,-4.7948,-4.7978,-4.805,-4.809,-4.8146,-4.8168,-4.8129,-4.8286,-4.8237,-4.8301,-4.8301,-4.8335,-4.8333,-4.8507,-4.8359,-4.8359,-4.8358,-4.8358,0,-4.7508,-4.7594,-4.7634,-4.7696,-4.7792,-4.7811,-4.7906,-4.7938,-4.7988,-4.8055,-4.8054,-4.8117,-4.8142,-4.8208,-4.8226,-4.8322,-4.834,-4.8355,-4.8359,-4.8356,-4.8354,-4.8382,-4.8375,-4.8363,-4.8362,-4.8361,-4.836,0,-4.7623,-4.7653,-4.7762,-4.7826,-4.7844,-4.7912,-4.7966,-4.8026,-4.8051,-4.8137,-4.8158,-4.8198,-4.8277,-4.8304,-4.8399,-4.8411,-4.8524,-4.852,-4.8504,-4.8505,-4.8568,-4.8562,-4.8768,-4.8796,-4.8628,-4.863,-4.8631,0,-4.7709,-4.7775,-4.7847,-4.7892,-4.7928,-4.8001,-4.8048,-4.807,-4.8119,-4.8191,-4.8242,-4.832,-4.8384,-4.851,-4.8548,-4.8621,-4.8619,-4.8686,-4.863,-4.8625,-4.8621,-4.8618,-4.8625,-4.8697,-4.8698,-4.87,-4.8701,0,-4.7858,-4.787,-4.7938,-4.8013,-4.8069,-4.8128,-4.8185,-4.8222,-4.8252,-4.8307,-4.8388,-4.8438,-4.8535,-4.8613,-4.8688,-4.8722,-4.8717,-4.8718,-4.8737,-4.8735,-4.8724,-4.8732,-4.8534,-4.8714,-4.8712,-4.8711,-4.8711,-4.871,-4.7962,-4.8021,-4.8081,-4.8157,-4.8202,-4.8256,-4.8315,-4.8349,-4.8417,-4.8499,-4.8507,-4.8595,-4.8652,-4.8752,-4.879,-4.8858,-4.884,-4.8867,-4.8874,-4.888,-4.8886,-4.8712,-4.8872,-4.8871,-4.8871,-4.8871,-4.887,0,-4.8112,-4.815,-4.822,-4.8301,-4.8361,-4.8351,-4.8414,-4.8465,-4.8542,-4.8596,-4.866,-4.8753,-4.8829,-4.8872,-4.8948,-4.8995,-4.8994,-4.9014,-4.9011,-4.9019,-4.8898,-4.8874,-4.9013,-4.9013,-4.9013,-4.9013,-4.9013,-4.9013,-4.8197,-4.8297,-4.8316,-4.8438,-4.8475,-4.8562,-4.8598,-4.8648,-4.8691,-4.8796,-4.8859,-4.8887,-4.8938,-4.9017,-4.9086,-4.9097,-4.9125,-4.9147,-4.9156,-4.9042,-4.9028,-4.9014,-4.8992,-4.9153,-4.9153,-4.9272,-4.9273,-4.9274]}]]